Tracking 19246 objects as of 19-Aug-2018
HD Live streaming from Space Station
objects crossing your sky now

NOAA 16 DEB

Track NOAA 16 DEB now!
10-day predictions


NORAD ID: 41511
Int'l Code: 2000-055MK
Perigee: 851.8 km
Apogee: 889.7 km
Inclination: 98.9 °
Period: 102.2 minutes
Semi major axis: 7241 km
RCS: Unknown
Launch date: September 21, 2000
Source: United States (US)
Launch site: AIR FORCE WESTERN TEST RANGE (AFWTR)

Note: This is SATELLITE DEBRIS
aabbcc
Your satellite tracking list
Your tracking list is empty




NASA's NSSDC Master Catalog

Two Line Element Set (TLE):
1 41511U 00055MK  18231.38713442  .00000470  00000-0  29739-3 0  9993
2 41511  98.8780 300.0687 0026200 316.0210  43.8874 14.08762663124195
Source of the keplerian elements: AFSPC